Location: LDNL
(36.4545°S, 141.6685°E)
Time: 11:14:39
(UTC+10:00)

Tiros 1 despin weight - Pass Details

Date: 10 August 2022
Orbit: 590 x 639 km, 48.2° (Epoch: 23 September)

Event Time Altitude Azimuth Distance (km) Brightness Sun altitude
Rises 00:36:42 0° 319° (NW) 2,886 - -69.3°
Reaches altitude 10° 00:39:00 10° 323° (NW) 1,994 - -69.3°
Maximum altitude 00:43:30 56° 40° (NE) 755 - -69.3°
Drops below altitude 10° 00:48:07 10° 118° (ESE) 2,039 - -69.2°
Sets 00:50:30 0° 122° (ESE) 2,958 - -69.1°
